Regional Weather Roundup
Issued by NWS

Home | Current Version | Previous Version | Graphics & Text | Print | Product List | Glossary On
Versions: 1 2 3 4 5 6 7 8 9 10 11 12 13 14 15 16 17 18 19 20 21 22 23 24 25 26 27 28 29 30 31 32 33 34 35 36 37 38 39 40 41 42 43 44 45 46 47 48 49 50
624
ASUS43 KMKX 292011
RWRWI

WISCONSIN REGIONAL WEATHER ROUNDUP
NATIONAL WEATHER SERVICE MILWAUKEE/SULLIVAN WI
300 PM CDT SUN MAY 29 2016

NOTE: "FAIR" INDICATES FEW OR NO CLOUDS BELOW 12,000 FEET WITH NO
SIGNIFICANT WEATHER AND/OR OBSTRUCTIONS TO VISIBILITY.

WIZ001-002-006>008-014>016-023>028-292100-
NORTHWEST WISCONSIN

CITY           SKY/WX    TMP DP  RH WIND       PRES   REMARKS
SUPERIOR ARPT  CLOUDY    69  57  65 NW13G22   29.87S
ASHLAND        CLOUDY    68  57  68 W10G17    29.86R
HAYWARD        CLOUDY    68  55  63 VRB7      29.90S
SIREN          PTSUNNY   72  53  51 W16       29.93S
CUMBERLAND     PTSUNNY   70  55  60 W17       29.94S
RICE LAKE      PTSUNNY   72  55  56 W14G25    29.94S
CHETEK         NOT AVBL
LADYSMITH      MOSUNNY   73  57  58 W23       29.93R
EAU CLAIRE     MOSUNNY   75  59  57 W16       29.92F
MENOMONIE      PTSUNNY   74  60  60 W14G21    29.94S
NEW RICHMOND   MOSUNNY   73  55  54 W13G22    29.95F
OSCEOLA        MOSUNNY   74  57  56 W10G21    29.97F
$$

WIZ003>005-009-010-017-018-292100-
NORTH CENTRAL WISCONSIN

CITY           SKY/WX    TMP DP  RH WIND       PRES   REMARKS
MANITOWISH WTR NOT AVBL
ARBOR VITAE    PTSUNNY   72  62  71 W16G22    29.86S
WOODRUFF       PTSUNNY   72  62  71 W16G22    29.86S
RHINELANDER    LGT RAIN  67  58  72 W16G24    29.88S
EAGLE RIVER      N/A     69  56  65 SW14G20   29.85S
LAND O LAKES   PTSUNNY   68  58  70 W9G18     29.85S
PHILLIPS       PTSUNNY   68  60  73 W15G24    29.88S
TOMAHAWK       CLOUDY    66  62  86 W13G18    29.89S
MEDFORD        PTSUNNY   67  61  79 W10G21    29.91S
MERRILL        LGT RAIN N/A N/A N/A W17G23    29.89S
$$

WIZ029-030-035-036-043>047-292100-
CENTRAL WISCONSIN

CITY           SKY/WX    TMP DP  RH WIND       PRES   REMARKS
WAUSAU         PTSUNNY   71  63  75 W16G23    29.89R
MOSINEE        PTSUNNY   66  61  82 W18G24    29.92S
MARSHFIELD     PTSUNNY   71  61  70 W13G22    29.92S
STEVENS POINT  LGT RAIN  65  60  86 W12G24    29.93S
WAUPACA        CLOUDY    73  63  72 W10       29.92S
WAUTOMA        PTSUNNY  N/A N/A N/A W21G30    29.92F
WISC RAPIDS    PTSUNNY   75  57  53 NW15G24   29.93S
CAMP DOUGLAS   PTSUNNY   77  61  57 W18G25    29.94S
$$

WIZ011>013-019>022-031-037>040-048>050-292100-
NORTHEAST WISCONSIN

CITY           SKY/WX    TMP DP  RH WIND       PRES   REMARKS
ANTIGO         CLOUDY    68  60  75 W14       29.89R
SHAWANO        HVY RAIN  69  61  73 W12G36    29.89R
OCONTO         PTSUNNY   75  62  63 W15G21    29.85S
STURGEON BAY   NOT AVBL
GREEN BAY      CLOUDY    72  61  68 SW17G23   29.88S
MANITOWOC      CLOUDY    74  61  63 W18G26    29.90F
APPLETON       PTSUNNY   72  55  56 W18       29.90S
CLINTONVILLE   CLOUDY    70  61  73 W14G21    29.89S
OSHKOSH        CLOUDY    75  58  55 W12G26    29.91S
$$

WIZ032>034-041-042-053>061-292100-
SOUTHWEST WISCONSIN

CITY           SKY/WX    TMP DP  RH WIND       PRES   REMARKS
LA CROSSE      MOSUNNY   80  57  45 NW16G22   29.95S HX  80
SPARTA         MOSUNNY   78  55  45 W13G24    29.95S
VIROQUA        MOSUNNY   73  57  56 W16       29.99R
BOSCOBEL       PTSUNNY   78  58  49 W10       29.98S
PRAIRIE DU CHI MOSUNNY   78  56  45 W12G22    29.98F
PLATTEVILLE    MOSUNNY   78  58  51 W14G21    30.01F
$$

WIZ056-057-062-063-064-067-068-292100-
SOUTH CENTRAL WISCONSIN

CITY           SKY/WX    TMP DP  RH WIND       PRES   REMARKS
REEDSBURG      MOSUNNY   76  57  51 W16G23    29.95F
BARABOO/DELLS  PTSUNNY   76  53  44 W13G24    29.96S
LONE ROCK      PTSUNNY   79  56  45 W18G26    29.97F HX  80
MINERAL POINT  MOSUNNY   77  59  53 W14G23    30.01S
MADISON        MOSUNNY   77  56  48 W8G23     29.96S
MIDDLETON      MOSUNNY   78  57  48 W18       29.98S
WATERTOWN      PTSUNNY   76  61  59 W12G20    29.96S
MONROE         MOSUNNY   77  55  47 W17G26    30.00S
JANESVILLE     PTSUNNY   79  57  47 W15G24    29.98S HX  80
$$

WIZ051-052-058>065-066-070>072-292100-
SOUTHEAST WISCONSIN

CITY           SKY/WX    TMP DP  RH WIND       PRES   REMARKS
MILWAUKEE      PTSUNNY   78  56  46 W15G26    29.95F
WAUKESHA       PTSUNNY   75  55  50 W12G23    29.97S
MILWAUKEE/TIMM PTSUNNY   77  54  44 SW17G26   29.96S
RACINE         PTSUNNY   78  59  51 W14G21    29.97F
BURLINGTON     PTSUNNY   76  56  50 W13G21    29.97F
KENOSHA        MOSUNNY   77  60  55 W16G30    29.97F
FOND DU LAC    PTSUNNY   75  59  57 W13G22    29.92S
SHEBOYGAN      PTSUNNY   72  61  68 W7        29.92S
WEST BEND      MOSUNNY   75  55  50 W21G29    29.95S
JUNEAU         MOSUNNY   75  59  57 W20G26    29.96S
$$

LSZ147-162-292100-
LAKE SUPERIOR

STATION/POSITION TIME  TEMP    WIND        PRES    WAVE
                       AIR SEA DIR/SP/G            HT/PER
                 (UTC) (F)     (DEG/KT/KT) (MB)    (FT/S)
W MID LAKE BUOY  1950   45 38  240/ 14/ 16 1008.8S   1/ 3
DEVILS ISLAND    2000   53     250/ 20/ 23 1010.0R
PORT WING        1840   61     260/ 14/ 21 1010.8
SAXON HARBOR     1900   67     280/ 11/ 19 1009.8R
$$

LMZ867-665-643>646-292100-
LAKE MICHIGAN

STATION/POSITION TIME  TEMP    WIND        PRES    WAVE
                       AIR SEA DIR/SP/G            HT/PER
                 (UTC) (F)     (DEG/KT/KT) (MB)    (FT/S)
CHAMBERS ISLAND  1900   68     200/  7/ 12 1010.5F
N MID LAKE BUOY  1950   50 48  190/ 16/ 17 1010.7F   3/ 5
NORTHPORT PIER   1900   61     160/  3/  6 1010.5F
KEWAUNEE LAKESHO 1900   72     240/  9/ 18 1011.3F
SHEBOYGAN LAKESH 2000   74     250/ 14/ 18 1013.1F
PORT WASHINGTON  1900   78     250/ 11/ 21 1014.2
S MID LAKE BUOY  1950   57 51  180/  8/  8 1015.1F   1
KENOSHA   LAKESH 2000   77     240/ 13/ 26 1014.6F
$$

TC  - TEMPERATURE IN CELSIUS
VSB - VISIBILITY IN STATUTE MILES
WCI - WIND CHILL INDEX
HX  - HEAT INDEX





USA.gov is the U.S. government's official web portal to all federal, state and local government web resources and services.